Regional Weather Roundup
Issued by NWS

Home | Current Version | Previous Version | Graphics & Text | Print | Product List | Glossary Off
Versions: 1 2 3 4 5 6 7 8 9 10 11 12 13 14 15 16 17 18 19 20 21 22 23 24 25 26 27 28 29 30 31 32 33 34 35 36 37 38 39 40 41 42 43 44 45 46 47 48 49 50

000
ASUS43 KFSD 010710
RWRSD

WEATHER ROUNDUP FOR SOUTH DAKOTA
NATIONAL WEATHER SERVICE SIOUX FALLS SD
200 AM CDT WED JUL 01 2015

NOTE: "FAIR" INDICATES FEW OR NO CLOUDS BELOW 12,000 FEET WITH NO
SIGNIFICANT WEATHER AND/OR OBSTRUCTIONS TO VISIBILITY.


SDZ001>005-009-010-012>017-010800-
NORTHWEST AND NORTH CENTRAL SOUTH DAKOTA

CITY           SKY/WX    TMP DP  RH WIND       PRES   REMARKS
BUFFALO          N/A     65  61  87 S7        29.86R
FAITH            N/A     62  60  93 S8        29.88
MOBRIDGE       TSTM      66  66 100 NE20G28   29.87R FOG
$$

SDZ012>016-024>037-041>051-057-063-072>074-010800-
SOUTHWEST AND SOUTH CENTRAL SOUTH DAKOTA

CITY           SKY/WX    TMP DP  RH WIND       PRES   REMARKS
RAPID CTY ARPT PTCLDY    68  66  93 CALM      29.93R
PIERRE         CLOUDY    65  64  97 SE8       29.84F
CUSTER         PTCLDY    60  58  92 CALM      30.11S FOG
ELLSWORTH AFB  CLEAR     68  67  96 SE2       29.92S
PHILIP         CLEAR     68  63  84 S5        29.86F
PINE RIDGE     CLEAR     65  62  90 NE3       29.94S
SPEARFISH      FAIR      64  59  82 W7        29.99S
WINNER         FAIR      69  60  73 S6        29.87F
$$

SDZ004>011-016>023-039-040-010800-
NORTHEAST SOUTH DAKOTA

CITY           SKY/WX    TMP DP  RH WIND       PRES   REMARKS
ABERDEEN       CLOUDY    66  63  90 E7        29.89F FOG
WATERTOWN      MOCLDY    64  60  87 SE6       29.90S
BROOKINGS      CLOUDY    64  59  82 SE9       29.93S
SISSETON         N/A     60  59  96 CALM      29.91S
$$

SDZ017-020-022-023-036>040-048>070-010800-
SOUTHEAST SOUTH DAKOTA

CITY           SKY/WX    TMP DP  RH WIND       PRES   REMARKS
SIOUX FALLS    PTCLDY    65  62  90 E7        29.92R
HURON          CLOUDY    67  67 100 S5        29.87S FOG
CHAMBERLAIN    CLOUDY    65  64  96 E6        29.89R
MITCHELL       MOCLDY    66  65  96 SE3       29.88F
YANKTON        MOCLDY    64  63  94 E3        29.87F
$$

ABBREVIATIONS USED IN REMARKS
   TC - TEMPERATURE IN CELSIUS
  WCI - WIND CHILL INDEX
   HX - HEAT INDEX
  VSB - VISIBILITY




USA.gov is the U.S. government's official web portal to all federal, state and local government web resources and services.